Driggs, ID

10:16 PM MST on January 17, 2018 (GMT -0700)
Driggs

Weather History for KDIJ - March, 2014

Change the Weather History Date:

Sunday, March 23, 2014

  Actual Average (KJAC) Record (KJAC)
Temperature  
Mean Temperature 26 °F -  
Max Temperature 37 °F 43 °F 57 °F (1972)
Min Temperature 15 °F 14 °F -10 °F (1966)
Degree Days  
Heating Degree Days 39    
Moisture  
Dew Point 12 °F    
Average Humidity 50    
Maximum Humidity 77    
Minimum Humidity 38    
Precipitation  
Precipitation 0.00 in - - ()
Sea Level Pressure  
Sea Level Pressure 30.12 in    
Wind  
Wind Speed 9 mph (SE)    
Max Wind Speed 18 mph    
Max Gust Speed -    
Visibility 10 miles    
Events      
Averages and records for this station are not official NWS values.
T = Trace of Precipitation, MM = Missing Value Source: NWS Daily Summary

Daily Weather History Graph

Daily Weather History Graph

Search for Another Location

Airport or City:

Trip Planner

Search our weather history database for the weather conditions in past years. The results will help you decide how hot, cold, wet, or windy it might be!

Date:

Astronomy

Mar. 23, 2014 Rise Set
Actual Time 7:22 AM MDT 7:40 PM MDT
Civil Twilight 6:53 AM MDT 8:09 PM MDT
Nautical Twilight 6:19 AM MDT 8:43 PM MDT
Astronomical Twilight 5:44 AM MDT 9:17 PM MDT
Moon 2:09 AM MDT (3/23) 11:57 AM MDT (3/23)
Length of Visible Light 13h 15m
Length of Day
12h 18m
Waning Gibbous, 54% of the Moon is Illuminated
Mar 23
Waning Gibbous
Mar 23
Last Quarter
Mar 30
New
Apr 7
First Quarter
Apr 15
Full

Hourly Weather History & Observations

Time (MDT) Temp. Windchill Dew Point Humidity Pressure Visibility Wind Dir Wind Speed Gust Speed Precip Events Conditions
12:56 AM 20.1 °F 15.2 °F 7.2 °F 57% 30.19 in 10.0 mi East 3.5 mph - N/A   Clear
1:56 AM 15.1 °F 5.2 °F 6.1 °F 68% 30.20 in 10.0 mi ESE 6.9 mph - N/A   Clear
2:56 AM 20.1 °F 12.3 °F 4.1 °F 50% 30.17 in 10.0 mi SE 5.8 mph - N/A   Clear
3:56 AM 20.1 °F 9.5 °F 4.1 °F 50% 30.15 in 10.0 mi SE 9.2 mph - N/A   Clear
4:56 AM 22.1 °F 11.3 °F 5.0 °F 48% 30.12 in 10.0 mi SSE 10.4 mph - N/A   Clear
5:56 AM 21.0 °F 9.9 °F 5.0 °F 50% 30.13 in 10.0 mi SE 10.4 mph - N/A   Clear
6:56 AM 22.1 °F 9.5 °F 5.0 °F 48% 30.14 in 10.0 mi SE 13.8 mph - N/A   Clear
7:56 AM 23.0 °F 12.4 °F 7.2 °F 51% 30.16 in 9.0 mi SE 10.4 mph - N/A   Clear
8:56 AM 28.0 °F 17.5 °F 9.1 °F 45% 30.15 in 9.0 mi SSE 12.7 mph - N/A   Clear
9:56 AM 32.0 °F 20.5 °F 10.0 °F 40% 30.12 in 9.0 mi South 18.4 mph - N/A   Clear
10:56 AM 32.9 °F 22.0 °F 13.1 °F 44% 30.14 in 9.0 mi South 17.3 mph - N/A   Partly Cloudy
11:56 AM 32.9 °F 23.7 °F 13.1 °F 44% 30.16 in 9.0 mi SSW 12.7 mph - N/A   Partly Cloudy
12:56 PM 34.0 °F 26.6 °F 17.1 °F 50% 30.15 in 9.0 mi South 9.2 mph - N/A   Partly Cloudy
1:56 PM 36.9 °F 27.1 °F 14.0 °F 39% 30.13 in 10.0 mi SW 17.3 mph - N/A   Clear
2:56 PM 37.9 °F 29.6 °F 14.0 °F 38% 30.09 in 8.0 mi WNW 13.8 mph - N/A   Partly Cloudy
3:56 PM 37.9 °F 29.6 °F 15.1 °F 39% 30.09 in 9.0 mi WNW 13.8 mph - N/A   Scattered Clouds
4:56 PM 37.9 °F 32.1 °F 18.1 °F 45% 30.07 in 9.0 mi NW 8.1 mph - N/A   Scattered Clouds
5:56 PM 36.0 °F 32.1 °F 18.1 °F 48% 30.08 in 10.0 mi SE 4.6 mph - N/A   Partly Cloudy
6:56 PM 36.0 °F 31.1 °F 16.2 °F 45% 30.06 in 9.0 mi ENE 5.8 mph - N/A   Clear
7:56 PM 37.9 °F 33.5 °F 16.2 °F 41% 30.04 in 10.0 mi SSE 5.8 mph - N/A   Partly Cloudy
8:56 PM 31.1 °F 26.4 °F 20.1 °F 64% 30.06 in 10.0 mi NNE 4.6 mph - N/A   Clear
9:56 PM 29.1 °F 25.4 °F 16.2 °F 58% 30.08 in 10.0 mi North 3.5 mph - N/A   Clear
10:56 PM 20.1 °F 13.6 °F 14.0 °F 77% 30.13 in 10.0 mi ENE 4.6 mph - N/A   Partly Cloudy
11:56 PM 21.0 °F 14.6 °F 13.1 °F 71% 30.16 in 9.0 mi ENE 4.6 mph - N/A   Partly Cloudy